Language selection

My Weather Profile Weather Topics  | 

Pacific - North Coast: Past 24 Hour Conditions

 

South Nomad - 46036

11:00 AM PDT 30 September 2022Buoy position: 48.35N 133.95W
Disclaimer

This table is a summary of hourly weather conditions for the past 24 hours.
Please note that these observations might not always be representative of weather conditions over their associated marine area.

Date / Time
(PDT)
Wind(knots) Wave height(m) Wave period(s) Pressure(kPa) Air tempC) Water tempC)
30 September 2022
11:00 SSE 12 gust 15 2.0 10.2 102.2 17 17
10:00 S 13 gust 16 N/A 10.7 102.3 16 17
9:00 S 12 gust 15 N/A 11.1 102.3 16 17
8:00 S 11 gust 12 2.1 10.7 102.3 16 17
7:00 S 11 gust 14 2.1 11.6 102.3 16 17
6:00 S 12 gust 15 2.1 9.8 102.3 16 17
5:00 S 12 gust 15 N/A 11.6 102.3 16 17
4:00 S 12 gust 15 2.2 10.2 102.3 16 17
3:00 S 11 gust 14 2.2 9.8 102.4 16 17
2:00 S 9 gust 10 2.2 11.6 102.4 16 17
1:00 SSW 9 gust 10 2.3 11.6 102.4 16 17
0:00 SSW 8 gust 9 2.3 9.8 102.5 16 17
29 September 2022
23:00 SW 8 gust 9 2.3 10.7 102.5 17 17
22:00 SW 7 gust 9 2.2 10.7 102.5 17 17
21:00 SW 8 gust 10 2.1 9.5 102.4 17 17
20:00 SW 8 gust 10 2.0 10.7 102.4 17 17
19:00 SW 10 gust 12 1.7 10.7 102.4 17 17
18:00 WSW 10 gust 13 1.8 10.7 102.4 17 17
17:00 SW 11 gust 13 1.6 11.1 102.4 17 17
16:00 SW 11 gust 14 1.5 15.1 102.4 17 17
15:00 SW 11 gust 13 N/A 14.2 102.3 17 17
14:00 WSW 11 gust 12 N/A 14.2 102.4 17 17
13:00 SW 8 gust 9 N/A 14.2 102.3 17 17
12:00 SW 7 gust 9 N/A 14.2 102.4 17 17
11:00 SW 9 gust 11 N/A 14.2 102.4 17 16

Zoom-in to make a selection

Map of Pacific - North Coast marine weather areas Middle Nomad - 46004 South Nomad - 46036 Dixon Entrance Central - 46145 South Moresby - 46147 Nanakwa Shoal - 46181 North Hecate Strait - 46183 North Nomad - 46184 South Hecate Strait - 46185 West Sea Otter - 46204 West Dixon Entrance - 46205 East Dellwood - 46207 West Moresby - 46208 Sartine Island Cape St.James Kindakun Rocks Langara Island Masset Municipal Airport Rose Spit Sandspit Airport Bella Bella Airport Bella Coola Airport Bonilla Island Cathedral Point Cumshewa Island Grey Islet Holland Rock Lucy Islands Lightstation Prince Rupert Airport
Legend:
buoy Buoy
land station Land Station

Pacific - North Coast Area

Another Region

What we are doing

Date modified: